Regional Weather Roundup
Issued by NWS Wakefield, VA

Home | Current Version | Previous Version | Graphics & Text | Print | Product List | Glossary On
Versions: 1 2 3 4 5 6 7 8 9 10 11 12 13 14 15 16 17 18 19 20 21 22 23 24 25 26 27 28
000
ASUS41 KAKQ 190310
RWRAKQ

REGIONAL WEATHER ROUNDUP
NATIONAL WEATHER SERVICE WAKEFIELD VA
1100 PM EDT FRI APR 18 2014

Note: "fair" indicates few or no clouds below 12,000 feet with no
significant weather and/or obstructions to visibility. * = Denotes
station may not report precipitation (e.g., rain,snow,etc.),
thunder or fog.

VAZ042-051-052>054-056-190400-
NORTHERN VIRGINIA

CITY           SKY/WX    TMP DP  RH WIND       PRES   REMARKS
WASH NATIONAL  CLOUDY    50  35  56 CALM      30.30F
DULLES         CLOUDY    46  36  68 SE5       30.29F
FORT BELVOIR   CLOUDY    45  37  75 CALM      30.30F
QUANTICO       CLOUDY    50  38  63 S8        30.31F
FREDERICKSBRG* CLOUDY    48  39  71 CALM      30.29F
STAFFORD*      CLOUDY    46  40  78 CALM      30.33F
WARRENTON      CLOUDY    44  42  92 CALM      30.28F
CULPEPER*      CLOUDY    46  37  71 CALM      30.29S
MANASSAS*      CLOUDY    48  37  66 CALM      30.29F
LEESBURG*      CLOUDY    50  37  62 CALM      30.29F
WINCHESTER     CLOUDY    45  36  70 CALM      30.25F
$$

VAZ048-049-060>072-079>083-190400-
CENTRAL AND SOUTH CENTRAL VIRGINIA...AND NORTH CENTRAL NORTH CAROLINA

CITY           SKY/WX    TMP DP  RH WIND       PRES   REMARKS
RICHMOND       CLOUDY    49  39  68 S3        30.30R
CHESTERFIELD*  NOT AVBL
HANOVER        CLOUDY    47  39  74 CALM      30.31F
TAPPAHANNOCK*  CLOUDY    46  39  76 CALM      30.29F
CHARLOTTSVILLE CLOUDY    50  38  63 SW5       30.27F
ORANGE*        CLOUDY    46  37  71 CALM      30.29F
LOUISA*        CLOUDY    45  39  81 CALM      30.27F
FARMVILLE*     CLOUDY    48  39  71 CALM      30.28R
SOUTH HILL*    DRIZZLE   50  41  71 CALM      30.33F
ROANOKE RAPIDS CLOUDY    52  43  71 CALM      30.30R
RALEIGH        LGT RAIN  50  47  89 CALM      30.28S
$$

VAZ088>098-190400-
SOUTHEAST VIRGINIA

CITY           SKY/WX    TMP DP  RH WIND       PRES   REMARKS
NORFOLK        CLOUDY    46  41  82 NE9       30.29F
VIRGINIA BEACH CLOUDY    46  41  82 NE7       30.28F
NORFOLK NAVAL  CLOUDY    47  41  80 NE10      30.30F
WEST POINT*    CLOUDY    48  41  76 E5        30.31F
NEWPORT NEWS   CLOUDY    49  41  74 E7        30.29F
LANGLEY AFB    CLOUDY    46  44  91 E7        30.30F
FORT EUSTIS    CLOUDY    46  43  87 E2        30.28F
WILLIAMSBURG*    N/A     48  45  87 E3        30.30F
FRANKLIN*      CLOUDY    48  43  81 CALM      30.30R
WAKEFIELD      CLOUDY    47  41  80 CALM      30.30S
$$

VAZ020-022-025-037-045-190400-
WESTERN AND SOUTHWEST VIRGINIA

CITY           SKY/WX    TMP DP  RH WIND       PRES   REMARKS
STAUNTON*      CLOUDY    46  38  72 CALM      30.28S
HOT SPRINGS VA CLOUDY    45  28  53 S3        30.31S
LYNCHBURG      CLOUDY    50  41  71 CALM      30.29F
DANVILLE       CLOUDY    51  42  71 NE5       30.27F
MARTINSVILLE   CLOUDY    47  44  90 CALM      30.30S
ROANOKE        CLOUDY    49  38  65 SE3       30.30S
BLACKSBURG     CLOUDY    46  43  87 CALM      30.29S
DUBLIN*        CLOUDY    46  40  81 CALM      30.27S
MARION*        CLOUDY    47  38  69 CALM      30.27F
HILLSVILLE*    CLOUDY    46  39  76 CALM      30.29S
RICHLANDS*     CLOUDY    57  33  40 E5        30.23F
WISE*          CLOUDY    54  32  43 CALM      30.24S
ABINGDON*      CLOUDY    56  32  39 E8        30.23S
$$

MDZ021>025-VAZ099-100-190400-
SOUTHERN MARYLAND AND THE DELMARVA PENINSULA

CITY           SKY/WX    TMP DP  RH WIND       PRES   REMARKS
PATUXENT RIVER CLOUDY    45  40  82 CALM      30.29F
BAY BRIDGE APT CLOUDY    46  37  71 CALM      30.31S
LEONARDTOWN    CLOUDY    45  37  76 CALM      30.31F
DOVER          CLOUDY    42  42  97 S5        30.28S
GEORGETOWN     CLOUDY    44  38  79 E3        30.31F
EASTON         CLOUDY    47  42  80 SE3       30.34F
CAMBRIDGE      CLOUDY    46  41  81 E5        30.29F
SALISBURY      CLOUDY    45  39  79 NE5       30.30F
OCEAN CITY     CLOUDY    44  39  82 NE6       30.30F
WALLOPS ISLAND CLOUDY    45  41  86 E8        30.30F
ACCOMACK*      CLOUDY    43  37  81 SE6       30.30F
$$

NCZ012>017-030>032-190400-
EASTERN NORTH CAROLINA

CITY           SKY/WX    TMP DP  RH WIND       PRES   REMARKS
ELIZABETH CITY CLOUDY    48  43  82 NE6       30.29S
AHOSKIE*       CLOUDY    48  41  75 CALM      30.32R
EDENTON*       CLOUDY    47  42  82 CALM      30.31R
CURRITUCK*     CLOUDY    47  44  87 NE9       30.28S
KILL DEVIL HLS CLOUDY    47  45  93 NE10G16   30.25S
MANTEO         CLOUDY    47  45  93 NE13      30.25F
CAPE HATTERAS  LGT RAIN  51  49  92 NE12G20   30.24R FOG
GOLDSBORO      LGT RAIN  54  53  97 NE8       30.23F
WASHINGTON     CLOUDY    50  45  83 NE7       30.29S
GREENVILLE     CLOUDY    52  43  71 E6        30.29F
NEW BERN       RAIN      51  47  86 NE10      30.27S FOG
WILMINGTON     LGT RAIN  54  51  90 NE15      30.17F
$$

VAZ048-190400-
ELSEWHERE

CITY           SKY/WX    TMP DP  RH WIND       PRES   REMARKS
HARRISBURG PA  CLOUDY    49  35  58 VRB3      30.27F
BALTIMORE      CLOUDY    46  34  62 CALM      30.29F
ANNAPOLIS      CLOUDY    48  40  73 CALM      30.30F
ANDREWS AFB    CLOUDY    47  34  61 CALM      30.29F
WILMINGTON DE  CLOUDY    45  38  76 CALM      30.31F
PHILADELPHIA   CLOUDY    46  37  71 SW8       30.31F
WILDWOOD NJ*   CLOUDY    43  36  75 CALM      30.33F
ATLANTIC CITY  CLOUDY    41  36  82 S3        30.31S
HENDERSON NC   LGT RAIN  49  44  83 E3        30.28S
GREENSBORO     CLOUDY    51  40  65 NE8       30.25F
ROCKY MOUNT    LGT RAIN  52  46  80 CALM      30.28S
FAYETTEVILLE   LGT RAIN  53  50  89 NE12      30.22F
CHARLOTTE      RAIN      49  47  93 NE13      30.21F FOG
$$

VAZ100-190400-
MARINE

STATION/POSITION TIME  TEMP    WIND        PRES    WAVE   SWELL
                       AIR SEA DIR/SP/G            HT/PER HT/PER
                 (UTC) (F)     (DEG/KT/KT) (MB)    (FT/S) (FT/S)
44066 TX TWR #4  0300   41 44  120/  4/  6 1025.8S   7/10   7/10
CAPE MAY NJ      0300   42 53  140/  3/  3 1026.4F
LEWES DE         0300   43 50  120/  2/  2 1025.9F
15NM E FENWICK I 0300   43 46              1026.3F   6/11
OCEAN-CITY-INLET 0300   44 47  140/  3/  4 1026.4R
WACHAPREAGUE VA  0300   45 53   80/  6/ 10 1026.0R
THOMAS POINT MD  0300   49 52   90/  1/  1 1026.4F
GOOSES REEF MD   0300   49     170/  2/  2 1027.1F
COVE POINT MD    0300   48     240/  1/  2 1026.1S
SOLOMONS ISLAND  0300      52                N/A
BISHOPS HEAD MD  0300   47 55  120/  5/  7 1025.6F
PINEY POINT MD   0300          220/  6/  7   N/A
POTOMAC MD       0300   48     170/  8/ 10 1025.3F
CAMBRIDGE MD     0300   48 55  130/  4/  5 1025.8F
LEWISETTA VA     0300   47 53  190/  3/  3 1025.5F
RAPPAHANNOCK LGT 0300           90/  8/  8 1026.2F
STINGRAY PT      0300   46     130/  6/ 10 1026.0F
YORK RVR RNG VA  0300   46     110/  6/  7 1025.3F
YORKTOWN VA      0300   47 54  110/  6/  8 1025.7F
JAMESTOWN VA     0300   47     110/  4/  6   N/A
DOMINION TERM VA 0300   47      10/  2/  6 1025.9F
KIPTOPEKE VA     0300      53  100/  5/  7   N/A
CHES BAY BRIDGE  0300   45 51   40/ 12/ 14 1025.4F
CAPE HENRY VA    0300   45      80/ 11/ 13   N/A
CHESAPEAKE LGHT  0200   45      60/ 12/ 13 1027.0R
WILLOUBY STN VA  0300   45      60/  8/ 10 1024.9F
S CRANEY ISL VA  0300           30/  6/  7 1025.9R
CAPE HENRY BUOY  0300      47                N/A     5/11   2/11
1ST LANDING BUOY 0300      45                N/A     5/11   5/11
64NM E OF VA BCH 0300   49 49   30/ 16/ 17 1024.2F   7/ 9   5/ 9
DUCK PIER NC     0300   47 50   30/ 17/ 19 1023.4F
44100 DUCK FRF   0300      48                N/A     6/11   3/11
44056 DUCK FRF   0300      48                N/A     6/10   2/12
OREGON INLET NC  0300   47 52   10/ 13/ 20 1023.9R
HATTERAS NC      0300   51 56   40/  9/ 16 1024.0F
CAPE LOOKOUT NC  0200   54      20/ 18/ 22 1022.8F
FRYING PAN SHLS  0300   59 65   50/ 27/ 33 1017.9F   8/ 7   3/12
$$



USA.gov is the U.S. government's official web portal to all federal, state and local government web resources and services.